SAS564 ESGG-LHBP

Flight info

Callsign SAS564
Flight time 1h 40m
Altitude 31000
Route TOPLA N195 ELVIX DCT POKEN DCT DOSAL L996 XERBI DCT DESEN DCT VALPI DCT NIT M748 ARFOX
Aircraft MD88/M-SDFGIRWY/C

Departure

Time 2026-05-04 16:02
Airport Göteborg Landvetter Airport (ESGG)

Arrival

Time 2026-05-04 17:42
Airport Budapest Liszt Ferenc International Airport (LHBP)
Time Latitude Longitude Altitude Speed Heading
2026-05-04 15:33 57.66672 12.29252 511 ft 0 kts 116°
2026-05-04 15:49 57.66678 12.29229 511 ft 2 kts 116°
2026-05-04 15:49 57.66684 12.29204 511 ft 2 kts 116°
2026-05-04 15:49 57.66691 12.29179 511 ft 2 kts 116°
2026-05-04 15:49 57.66696 12.29158 510 ft 0 kts 116°
2026-05-04 15:50 57.66701 12.29137 510 ft 2 kts 94°
2026-05-04 15:50 57.66698 12.29110 510 ft 2 kts 65°
2026-05-04 15:50 57.66689 12.29088 510 ft 2 kts 36°
2026-05-04 15:50 57.66683 12.29081 510 ft 1 kts 21°
2026-05-04 15:51 57.66679 12.29078 510 ft 0 kts 25°
2026-05-04 15:54 57.66680 12.29079 510 ft 0 kts 25°
2026-05-04 15:54 57.66690 12.29088 510 ft 2 kts 26°
2026-05-04 15:55 57.66711 12.29107 510 ft 4 kts 27°
2026-05-04 15:55 57.66744 12.29133 510 ft 5 kts
2026-05-04 15:55 57.66774 12.29088 510 ft 6 kts 301°
2026-05-04 15:55 57.66808 12.29011 510 ft 8 kts 339°
2026-05-04 15:56 57.66869 12.29029 510 ft 10 kts 22°
2026-05-04 15:56 57.66939 12.29090 510 ft 12 kts 25°
2026-05-04 15:56 57.67020 12.29164 510 ft 13 kts 25°
2026-05-04 15:56 57.67117 12.29253 511 ft 17 kts 26°
2026-05-04 15:57 57.67220 12.29347 511 ft 15 kts 26°
2026-05-04 15:57 57.67313 12.29431 511 ft 14 kts 26°
2026-05-04 15:57 57.67388 12.29477 512 ft 9 kts 348°
2026-05-04 15:57 57.67428 12.29401 511 ft 8 kts 297°
2026-05-04 15:58 57.67452 12.29310 511 ft 7 kts 293°
2026-05-04 15:58 57.67458 12.29261 511 ft 1 kts 272°
2026-05-04 15:58 57.67458 12.29255 511 ft 0 kts 270°
2026-05-04 15:58 57.67458 12.29254 511 ft 0 kts 270°
2026-05-04 15:59 57.67457 12.29191 511 ft 9 kts 264°
2026-05-04 15:59 57.67419 12.29034 511 ft 16 kts 226°
2026-05-04 15:59 57.67340 12.28943 510 ft 10 kts 206°
2026-05-04 15:59 57.67298 12.28905 510 ft 2 kts 205°
2026-05-04 16:00 57.67295 12.28903 510 ft 0 kts 205°
2026-05-04 16:00 57.67271 12.28881 510 ft 0 kts 205°
2026-05-04 16:01 57.67217 12.28833 510 ft 30 kts 206°
2026-05-04 16:01 57.66842 12.28489 509 ft 87 kts 205°
2026-05-04 16:02 57.66146 12.27856 507 ft 134 kts 205°
2026-05-04 16:02 57.65207 12.26998 646 ft 159 kts 210°
2026-05-04 16:02 57.63270 12.25248 1808 ft 155 kts 213°
2026-05-04 16:03 57.62280 12.24425 2266 ft 160 kts 211°
2026-05-04 16:03 57.61235 12.23647 2742 ft 164 kts 207°
2026-05-04 16:03 57.60054 12.23369 3124 ft 179 kts 195°
2026-05-04 16:03 57.58729 12.23109 3413 ft 199 kts 192°
2026-05-04 16:04 57.57412 12.22877 4239 ft 188 kts 193°
2026-05-04 16:04 57.54758 12.22561 5341 ft 201 kts 179°
2026-05-04 16:04 57.53355 12.22978 5875 ft 207 kts 178°
2026-05-04 16:05 57.51929 12.23400 6411 ft 213 kts 178°
2026-05-04 16:05 57.50443 12.23833 6960 ft 218 kts 178°
2026-05-04 16:05 57.47390 12.24709 8043 ft 230 kts 178°
2026-05-04 16:06 57.45794 12.25157 8579 ft 235 kts 178°
2026-05-04 16:06 57.41357 12.26389 9999 ft 251 kts 179°
2026-05-04 16:07 57.39019 12.27031 10703 ft 259 kts 179°
2026-05-04 16:07 57.33552 12.28515 12305 ft 275 kts 179°
2026-05-04 16:08 57.31643 12.29030 12747 ft 285 kts 179°
2026-05-04 16:08 57.24961 12.30813 13132 ft 355 kts 178°
2026-05-04 16:09 57.20099 12.32133 14522 ft 361 kts 178°
2026-05-04 16:09 57.15105 12.33477 15823 ft 369 kts 176°
2026-05-04 16:10 57.10206 12.37072 17035 ft 392 kts 153°
2026-05-04 16:11 57.03136 12.44830 18779 ft 401 kts 155°
2026-05-04 16:11 57.00725 12.47404 19344 ft 404 kts 155°
2026-05-04 16:12 56.93402 12.55129 20996 ft 412 kts 155°
2026-05-04 16:12 56.85886 12.63002 22570 ft 420 kts 154°
2026-05-04 16:13 56.80799 12.68321 23596 ft 425 kts 155°
2026-05-04 16:13 56.75644 12.73703 24524 ft 432 kts 155°
2026-05-04 16:14 56.70417 12.79165 25478 ft 437 kts 154°
2026-05-04 16:14 56.65132 12.84690 26363 ft 442 kts 154°
2026-05-04 16:15 56.57094 12.93097 27641 ft 449 kts 154°
2026-05-04 16:16 56.51654 12.98788 28456 ft 454 kts 153°
2026-05-04 16:16 56.43418 13.07412 29581 ft 461 kts 153°
2026-05-04 16:17 56.37904 13.13164 30453 ft 460 kts 154°
2026-05-04 16:18 56.29617 13.21522 30894 ft 452 kts 154°
2026-05-04 16:18 56.26869 13.24274 30908 ft 455 kts 154°
2026-05-04 16:19 56.13059 13.38079 30912 ft 455 kts 154°
2026-05-04 16:20 55.99278 13.51852 30904 ft 455 kts 154°
2026-05-04 16:22 55.85471 13.65669 30928 ft 456 kts 155°
2026-05-04 16:23 55.68943 13.82221 30920 ft 456 kts 156°
2026-05-04 16:25 55.52315 13.98489 30918 ft 456 kts 158°
2026-05-04 16:26 55.32703 14.16329 30923 ft 452 kts 164°
2026-05-04 16:28 55.18339 14.27597 30929 ft 454 kts 164°
2026-05-04 16:29 54.98246 14.43453 30953 ft 454 kts 164°
2026-05-04 16:31 54.83921 14.54791 30955 ft 454 kts 163°
2026-05-04 16:32 54.66376 14.65766 30947 ft 448 kts 170°
2026-05-04 16:33 54.54689 14.72619 30947 ft 447 kts 170°
2026-05-04 16:34 54.45879 14.77802 30944 ft 450 kts 170°
2026-05-04 16:35 54.28196 14.88221 30952 ft 451 kts 169°
2026-05-04 16:36 54.19356 14.93432 30950 ft 449 kts 169°
2026-05-04 16:37 54.10495 14.98657 30953 ft 451 kts 169°
2026-05-04 16:38 53.98737 15.05577 30949 ft 451 kts 169°
2026-05-04 16:39 53.83944 15.14032 30952 ft 448 kts 169°
2026-05-04 16:40 53.72156 15.20741 30955 ft 447 kts 168°
2026-05-04 16:41 53.57521 15.29071 30955 ft 446 kts 168°
2026-05-04 16:43 53.42880 15.37395 30985 ft 446 kts 167°
2026-05-04 16:43 53.34239 15.43399 30951 ft 451 kts 161°
2026-05-04 16:45 53.17228 15.56404 30947 ft 449 kts 161°
2026-05-04 16:46 53.03080 15.67215 30929 ft 446 kts 161°
2026-05-04 16:47 52.91649 15.75227 30932 ft 448 kts 163°
2026-05-04 16:48 52.80209 15.83221 30937 ft 447 kts 162°
2026-05-04 16:49 52.68805 15.91191 30937 ft 448 kts 162°
2026-05-04 16:50 52.57365 15.99191 30937 ft 447 kts 162°
2026-05-04 16:51 52.48798 16.05184 30937 ft 450 kts 162°
2026-05-04 16:52 52.37308 16.13223 30936 ft 449 kts 162°
2026-05-04 16:53 52.28737 16.19223 30937 ft 448 kts 161°
2026-05-04 16:54 52.17273 16.27053 30930 ft 448 kts 162°
2026-05-04 16:55 52.00009 16.38654 30928 ft 449 kts 161°
2026-05-04 16:56 51.85601 16.48323 30930 ft 449 kts 161°
2026-05-04 16:57 51.76982 16.54107 30932 ft 449 kts 161°
2026-05-04 16:58 51.65456 16.61844 30929 ft 449 kts 160°
2026-05-04 17:00 51.48219 16.73424 30914 ft 449 kts 161°
2026-05-04 17:01 51.33810 16.82985 30924 ft 449 kts 161°
2026-05-04 17:01 51.28066 16.86714 30685 ft 452 kts 161°
2026-05-04 17:02 51.22306 16.90449 30924 ft 446 kts 161°
2026-05-04 17:03 51.13674 16.96032 30941 ft 450 kts 160°
2026-05-04 17:03 51.05040 17.01623 30933 ft 449 kts 160°
2026-05-04 17:04 50.93473 17.09110 30948 ft 451 kts 160°
2026-05-04 17:05 50.81856 17.16632 30943 ft 451 kts 160°
2026-05-04 17:06 50.73145 17.22274 30953 ft 452 kts 160°
2026-05-04 17:07 50.65402 17.27290 30952 ft 453 kts 160°
2026-05-04 17:07 50.58623 17.31614 30958 ft 454 kts 160°
2026-05-04 17:08 50.49835 17.37168 30960 ft 454 kts 160°
2026-05-04 17:09 50.44003 17.40851 30966 ft 454 kts 160°
2026-05-04 17:09 50.38136 17.44555 30967 ft 455 kts 160°
2026-05-04 17:10 50.23371 17.53250 30980 ft 454 kts 166°
2026-05-04 17:11 50.17285 17.55337 30985 ft 454 kts 170°
2026-05-04 17:12 50.08028 17.58443 30999 ft 454 kts 169°
2026-05-04 17:13 49.92670 17.63755 31012 ft 454 kts 169°
2026-05-04 17:14 49.80294 17.68063 31015 ft 455 kts 169°
2026-05-04 17:15 49.71034 17.71293 31012 ft 455 kts 169°
2026-05-04 17:16 49.58692 17.75597 31007 ft 455 kts 169°
2026-05-04 17:17 49.46337 17.79905 30995 ft 456 kts 168°
2026-05-04 17:18 49.33979 17.84170 31001 ft 455 kts 169°
2026-05-04 17:19 49.21622 17.88380 31015 ft 456 kts 168°
2026-05-04 17:20 49.09276 17.92583 31021 ft 457 kts 168°
2026-05-04 17:20 48.99941 17.95542 31035 ft 455 kts 173°
2026-05-04 17:21 48.87500 17.97142 31036 ft 442 kts 176°
2026-05-04 17:22 48.81333 17.97934 31002 ft 445 kts 176°
2026-05-04 17:23 48.72084 17.99159 30136 ft 439 kts 176°
2026-05-04 17:23 48.69058 17.99565 29851 ft 432 kts 176°
2026-05-04 17:23 48.63267 18.00346 29274 ft 410 kts 176°
2026-05-04 17:24 48.60465 18.00726 28952 ft 404 kts 176°
2026-05-04 17:24 48.52055 18.01864 27750 ft 403 kts 176°
2026-05-04 17:25 48.49270 18.02241 27358 ft 402 kts 176°
2026-05-04 17:25 48.43767 18.02986 26568 ft 396 kts 176°
2026-05-04 17:26 48.38340 18.03721 25782 ft 389 kts 176°
2026-05-04 17:26 48.30379 18.05135 24582 ft 382 kts 161°
2026-05-04 17:27 48.25980 18.09371 23842 ft 379 kts 131°
2026-05-04 17:27 48.22606 18.15367 23088 ft 373 kts 131°
2026-05-04 17:28 48.19259 18.21106 22291 ft 358 kts 132°
2026-05-04 17:29 48.15330 18.30152 21134 ft 346 kts 115°
2026-05-04 17:29 48.11527 18.39296 19833 ft 353 kts 147°
2026-05-04 17:30 48.05639 18.45308 18625 ft 331 kts 145°
2026-05-04 17:31 48.02000 18.49266 17853 ft 323 kts 144°
2026-05-04 17:31 47.96612 18.55294 16728 ft 324 kts 143°
2026-05-04 17:32 47.93048 18.59338 15973 ft 320 kts 143°
2026-05-04 17:33 47.87866 18.65261 15022 ft 304 kts 144°
2026-05-04 17:33 47.86195 18.67176 15023 ft 300 kts 144°
2026-05-04 17:34 47.81123 18.73001 14178 ft 304 kts 143°
2026-05-04 17:34 47.79445 18.74931 13737 ft 301 kts 143°
2026-05-04 17:35 47.74523 18.80597 12241 ft 297 kts 143°
2026-05-04 17:35 47.71291 18.84318 11135 ft 292 kts 143°
2026-05-04 17:35 47.69700 18.86153 10610 ft 288 kts 143°
2026-05-04 17:36 47.68129 18.87964 10076 ft 284 kts 143°
2026-05-04 17:36 47.66590 18.89740 9556 ft 281 kts 143°
2026-05-04 17:36 47.65051 18.91514 9037 ft 277 kts 143°
2026-05-04 17:36 47.63539 18.93257 8502 ft 275 kts 143°
2026-05-04 17:37 47.62075 18.94945 8125 ft 262 kts 143°
2026-05-04 17:37 47.60687 18.96575 7704 ft 248 kts 140°
2026-05-04 17:37 47.59444 18.98302 7155 ft 244 kts 135°
2026-05-04 17:37 47.58329 19.00116 6541 ft 242 kts 134°
2026-05-04 17:38 47.57200 19.01962 5920 ft 240 kts 134°
2026-05-04 17:38 47.56134 19.03705 5343 ft 224 kts 134°
2026-05-04 17:38 47.55117 19.05352 4701 ft 213 kts 134°
2026-05-04 17:38 47.54153 19.06940 4081 ft 204 kts 134°
2026-05-04 17:39 47.52401 19.09834 3176 ft 184 kts 136°
2026-05-04 17:39 47.51560 19.11178 2715 ft 168 kts 135°
2026-05-04 17:39 47.50845 19.12423 2256 ft 158 kts 135°
2026-05-04 17:40 47.50168 19.13571 1998 ft 137 kts 137°
2026-05-04 17:40 47.49560 19.14557 1718 ft 126 kts 139°
2026-05-04 17:40 47.48913 19.15526 1454 ft 150 kts 139°
2026-05-04 17:40 47.48225 19.16614 1315 ft 138 kts 136°
2026-05-04 17:41 47.47621 19.17636 1096 ft 127 kts 137°
2026-05-04 17:41 47.46995 19.18615 952 ft 136 kts 137°
2026-05-04 17:41 47.46352 19.19682 818 ft 135 kts 133°
2026-05-04 17:41 47.45728 19.20697 670 ft 132 kts 136°
2026-05-04 17:42 47.45103 19.21704 543 ft 133 kts 135°
2026-05-04 17:42 47.44500 19.22678 447 ft 125 kts 135°
2026-05-04 17:42 47.43998 19.23475 442 ft 82 kts 131°
2026-05-04 17:42 47.43745 19.23919 438 ft 44 kts 118°
2026-05-04 17:43 47.43675 19.24233 438 ft 18 kts 103°
2026-05-04 17:43 47.43643 19.24390 440 ft 11 kts 112°
2026-05-04 17:43 47.43641 19.24400 440 ft 0 kts 113°
2026-05-04 17:45 47.43640 19.24400 440 ft 0 kts 113°
2026-05-04 17:46 47.43630 19.24435 440 ft 11 kts 114°
2026-05-04 17:46 47.43589 19.24542 442 ft 9 kts 124°
2026-05-04 17:46 47.43557 19.24601 443 ft 5 kts 131°
2026-05-04 17:46 47.43542 19.24626 444 ft 1 kts 131°
2026-05-04 17:47 47.43538 19.24633 444 ft 1 kts 131°
2026-05-04 17:47 47.43527 19.24650 444 ft 4 kts 131°
2026-05-04 17:47 47.43497 19.24700 445 ft 8 kts 132°
2026-05-04 17:47 47.43445 19.24783 446 ft 12 kts 132°
2026-05-04 17:48 47.43376 19.24895 449 ft 16 kts 131°
2026-05-04 17:48 47.43290 19.25033 452 ft 19 kts 133°
2026-05-04 17:48 47.43232 19.25200 455 ft 18 kts 77°
2026-05-04 17:48 47.43303 19.25333 459 ft 16 kts 43°
2026-05-04 17:49 47.43389 19.25447 463 ft 17 kts 42°
2026-05-04 17:49 47.43478 19.25567 468 ft 17 kts 42°
2026-05-04 17:49 47.43538 19.25660 470 ft 10 kts 72°
2026-05-04 17:49 47.43513 19.25751 471 ft 11 kts 129°
2026-05-04 17:50 47.43498 19.25833 471 ft 6 kts 51°
2026-05-04 17:50 47.43530 19.25841 471 ft 4 kts 331°
2026-05-04 17:50 47.43547 19.25820 472 ft 0 kts 312°